Dallas Love, TX

4:47 PM CST on November 23, 2017 (GMT -0600)
Dallas Love

Weather History for KDAL - March, 2014

Change the Weather History Date:

Friday, March 28, 2014

  Actual Average Record
Temperature  
Mean Temperature 70 °F -  
Max Temperature 82 °F 68 °F 82 °F (1998)
Min Temperature 55 °F 50 °F 35 °F (2009)
Cooling Degree Days 4    
Growing Degree Days 20 (Base 50)    
Moisture  
Dew Point 59 °F    
Average Humidity 74    
Maximum Humidity 90    
Minimum Humidity 38    
Precipitation  
Precipitation 0.01 in - - ()
Sea Level Pressure  
Sea Level Pressure 29.81 in    
Wind  
Wind Speed 10 mph (SSE)    
Max Wind Speed 20 mph    
Max Gust Speed 30 mph    
Visibility 7 miles    
Events Rain    
Averages and records for this station are not official NWS values.
T = Trace of Precipitation, MM = Missing Value Source: NWS Daily Summary

Daily Weather History Graph

Daily Weather History Graph

Search for Another Location

Airport or City:

Trip Planner

Search our weather history database for the weather conditions in past years. The results will help you decide how hot, cold, wet, or windy it might be!

Date:

Astronomy

Mar. 28, 2014 Rise Set
Actual Time 7:20 AM CDT 7:44 PM CDT
Civil Twilight 6:55 AM CDT 8:09 PM CDT
Nautical Twilight 6:26 AM CDT 8:38 PM CDT
Astronomical Twilight 5:57 AM CDT 9:08 PM CDT
Moon 5:45 AM CDT (3/28) 5:48 PM CDT (3/28)
Length of Visible Light 13h 13m
Length of Day
12h 24m
Waning Crescent, 6% of the Moon is Illuminated
Mar 28
Waning Crescent
Mar 30
New
Apr 7
First Quarter
Apr 15
Full
Apr 22
Last Quarter

Hourly Weather History & Observations

Time (CDT) Temp. Heat Index Dew Point Humidity Pressure Visibility Wind Dir Wind Speed Gust Speed Precip Events Conditions
12:53 AM 66.9 °F - 63.0 °F 87% 29.73 in 10.0 mi SE 8.1 mph - N/A   Partly Cloudy
1:33 AM 68.0 °F - 64.9 °F 90% 29.74 in 6.0 mi SSE 10.4 mph - N/A   Partly Cloudy
1:49 AM 68.0 °F - 64.4 °F 88% 29.74 in 6.0 mi SSE 9.2 mph - N/A   Scattered Clouds
1:53 AM 68.0 °F - 64.9 °F 90% 29.73 in 6.0 mi SSE 9.2 mph - N/A   Scattered Clouds
2:15 AM 68.0 °F - 64.9 °F 90% 29.74 in 6.0 mi SSE 8.1 mph - N/A   Mostly Cloudy
2:22 AM 68.0 °F - 64.9 °F 90% 29.74 in 6.0 mi South 9.2 mph - N/A   Mostly Cloudy
2:53 AM 69.1 °F - 64.9 °F 87% 29.72 in 6.0 mi South 9.2 mph - N/A   Overcast
3:53 AM 69.1 °F - 64.9 °F 87% 29.71 in 6.0 mi SSE 8.1 mph - N/A   Overcast
4:53 AM 69.1 °F - 64.9 °F 87% 29.72 in 6.0 mi SSE 5.8 mph - N/A   Overcast
5:28 AM 69.1 °F - 64.9 °F 87% 29.75 in 7.0 mi SSE 8.1 mph - N/A   Mostly Cloudy
5:53 AM 69.1 °F - 64.9 °F 87% 29.74 in 7.0 mi SSE 6.9 mph - N/A   Overcast
6:53 AM 68.0 °F - 64.9 °F 90% 29.75 in 6.0 mi SSE 9.2 mph - N/A   Mostly Cloudy
7:37 AM 68.0 °F - 64.0 °F 87% 29.77 in 5.0 mi South 10.4 mph - N/A   Scattered Clouds
7:53 AM 68.0 °F - 64.0 °F 87% 29.77 in 5.0 mi South 11.5 mph - N/A   Mostly Cloudy
8:13 AM 68.0 °F - 64.9 °F 90% 29.79 in 6.0 mi South 11.5 mph - N/A   Mostly Cloudy
8:28 AM 69.1 °F - 64.9 °F 87% 29.79 in 6.0 mi South 12.7 mph - N/A   Mostly Cloudy
8:53 AM 70.0 °F - 64.0 °F 81% 29.81 in 7.0 mi SSW 11.5 mph - N/A   Overcast
9:02 AM 70.0 °F - 64.0 °F 81% 29.83 in 7.0 mi SSW 11.5 mph 21.9 mph N/A   Overcast
9:18 AM 71.1 °F - 64.0 °F 78% 29.81 in 7.0 mi SSW 8.1 mph 19.6 mph N/A   Mostly Cloudy
9:53 AM 72.0 °F - 64.0 °F 76% 29.79 in 8.0 mi SW 6.9 mph - N/A   Mostly Cloudy
10:53 AM 75.0 °F - 64.0 °F 69% 29.81 in 8.0 mi SSW 12.7 mph 19.6 mph N/A   Mostly Cloudy
11:53 AM 77.0 °F - 64.0 °F 64% 29.80 in 8.0 mi South 8.1 mph - N/A   Mostly Cloudy
12:53 PM 81.0 °F 81.7 °F 61.0 °F 50% 29.78 in 10.0 mi SSE 9.2 mph - N/A   Mostly Cloudy
1:53 PM 82.0 °F 81.3 °F 54.0 °F 38% 29.75 in 10.0 mi SSE 4.6 mph - N/A   Overcast
2:53 PM 77.0 °F - 57.9 °F 52% 29.76 in 10.0 mi North 18.4 mph 25.3 mph 0.00 in Rain Light Rain
3:10 PM 70.0 °F - 59.0 °F 68% 29.78 in 6.0 mi North 12.7 mph - 0.00 in   Haze
3:53 PM 69.1 °F - 60.1 °F 73% 29.77 in 6.0 mi North 6.9 mph - 0.00 in Rain Light Rain
4:53 PM 68.0 °F - 60.1 °F 76% 29.79 in 6.0 mi North 5.8 mph - 0.01 in Rain Light Rain
5:53 PM 64.9 °F - 53.1 °F 65% 29.82 in 7.0 mi North 13.8 mph - 0.00 in   Mostly Cloudy
6:53 PM 66.0 °F - 51.1 °F 59% 29.82 in 7.0 mi North 15.0 mph - N/A   Mostly Cloudy
7:53 PM 64.0 °F - 51.1 °F 63% 29.86 in 7.0 mi NNW 13.8 mph 20.7 mph N/A   Mostly Cloudy
8:53 PM 62.1 °F - 45.0 °F 53% 29.92 in 10.0 mi NNW 17.3 mph - N/A   Scattered Clouds
9:29 PM 61.0 °F - 43.0 °F 52% 29.97 in 10.0 mi North 17.3 mph - N/A   Mostly Cloudy
9:48 PM 60.8 °F - 44.6 °F 55% 29.98 in 10.0 mi North 13.8 mph 18.4 mph N/A   Scattered Clouds
9:53 PM 60.1 °F - 44.1 °F 55% 29.97 in 10.0 mi NNW 17.3 mph 23.0 mph N/A   Scattered Clouds
10:53 PM 57.0 °F - 39.9 °F 53% 30.02 in 10.0 mi North 19.6 mph 29.9 mph N/A   Clear
11:53 PM 55.0 °F - 39.0 °F 55% 30.06 in 10.0 mi North 15.0 mph - N/A   Clear